This demonstration page uses our WeatherBlox Daily Observations layout. Learn more.

Hourly Observations for May 13, 2015

Temp ( °F °C ) Dew Point ( °F °C ) Humidity (%) Winds ( mph kmh ) Pressure ( in mb ) Visibility ( mi km ) Precip ( " mm )
12:15 am 00:15 Clear 55 13 39 4 55 55 SSE 20 31 30.12 1020 10 16.09344 0 0
12:35 am 00:35 Clear 54 12 39 4 58 58 SSE 18 30 30.12 1020 10 16.09344 0 0
12:55 am 00:55 Clear 54 12 39 4 58 58 SSE 17 28 30.12 1020 10 16.09344 0 0
1:15 am 01:15 Clear 54 12 39 4 58 58 SSE 17 28 30.12 1020 10 16.09344 0 0
1:35 am 01:35 Clear 54 12 39 4 58 58 SSE 16 26 30.12 1020 10 16.09344 0 0
1:55 am 01:55 Clear 52 11 39 4 62 62 SSE 15 24 30.12 1020 10 16.09344 0 0
2:15 am 02:15 Clear 54 12 39 4 58 58 SSE 17 28 30.12 1020 10 16.09344 0 0
2:35 am 02:35 Clear 52 11 37 3 58 58 SSE 18 30 30.12 1020 10 16.09344 0 0
2:55 am 02:55 Clear 52 11 37 3 58 58 SSE 16 26 30.12 1020 10 16.09344 0 0
3:15 am 03:15 Clear 52 11 37 3 58 58 SSE 17 28 30.09 1019 10 16.09344 0 0
3:35 am 03:35 Clear 50 10 37 3 62 62 SSE 16 26 30.12 1020 10 16.09344 0 0
3:55 am 03:55 Clear 50 10 37 3 62 62 SSE 16 26 30.15 1021 10 16.09344 0 0
4:15 am 04:15 Partly Cloudy 50 10 37 3 62 62 SSE 15 24 30.15 1021 10 16.09344 0 0
4:35 am 04:35 Partly Cloudy 50 10 37 3 62 62 SSE 15 24 30.12 1020 10 16.09344 0 0
4:55 am 04:55 Partly Cloudy 50 10 37 3 62 62 SSE 14 22 30.12 1020 10 16.09344 0 0
5:15 am 05:15 Clear 50 10 37 3 62 62 SSE 13 20 30.12 1020 10 16.09344 0 0
5:35 am 05:35 Clear 48 9 37 3 66 66 SSE 12 19 30.12 1020 10 16.09344 0 0
5:55 am 05:55 Clear 48 9 39 4 71 71 SSE 12 19 30.12 1020 10 16.09344 0 0
6:15 am 06:15 Clear 48 9 39 4 71 71 SSE 15 24 30.12 1020 10 16.09344 0 0
6:35 am 06:35 Sunny 48 9 39 4 71 71 SSE 15 24 30.12 1020 10 16.09344 0 0
6:55 am 06:55 Sunny 48 9 39 4 71 71 SSE 13 20 30.12 1020 10 16.09344 0 0
7:15 am 07:15 Sunny 50 10 39 4 67 67 SSE 16 26 30.15 1021 10 16.09344 0 0
7:35 am 07:35 Sunny 50 10 41 5 71 71 SSE 16 26 30.15 1021 10 16.09344 0 0
7:55 am 07:55 Sunny 52 11 41 5 67 67 SSE 16 26 30.12 1020 10 16.09344 0 0
8:15 am 08:15 Sunny 54 12 41 5 63 63 SSE 21 33 30.12 1020 10 16.09344 0 0
8:35 am 08:35 Sunny 55 13 43 6 63 63 SSE 20 31 30.12 1020 10 16.09344 0 0
8:55 am 08:55 Sunny 55 13 43 6 63 63 SSE 23 37 30.12 1020 10 16.09344 0 0
9:15 am 09:15 Sunny 57 14 43 6 59 59 S 26 43 30.09 1019 10 16.09344 0 0
9:35 am 09:35 Sunny 59 15 43 6 55 55 SSE 25 41 30.09 1019 10 16.09344 0 0
9:55 am 09:55 Sunny 59 15 45 7 59 59 S 25 41 30.06 1018 10 16.09344 0 0
10:15 am 10:15 Sunny 63 17 45 7 52 52 S 25 41 30.03 1017 10 16.09344 0 0
10:35 am 10:35 Sunny 63 17 45 7 52 52 SSE 25 41 30.03 1017 10 16.09344 0 0
10:55 am 10:55 Sunny 63 17 46 8 56 56 SSE 22 35 30.03 1017 10 16.09344 0 0
11:15 am 11:15 Sunny 66 19 48 9 52 52 S 23 37 30.03 1017 10 16.09344 0 0
11:35 am 11:35 Sunny 68 20 48 9 49 49 S 28 44 30.03 1017 10 16.09344 0 0
11:55 am 11:55 Sunny 66 19 48 9 52 52 S 28 44 30.03 1017 10 16.09344 0 0
12:15 pm 12:15 Sunny 68 20 50 10 53 53 S 26 43 30.03 1017 10 16.09344 0 0
12:35 pm 12:35 Sunny 68 20 50 10 53 53 S 25 41 30.03 1017 10 16.09344 0 0
12:55 pm 12:55 Sunny 66 19 50 10 56 56 S 24 39 30.03 1017 10 16.09344 0 0
1:15 pm 13:15 Partly Cloudy 66 19 50 10 56 56 SSE 25 41 30.03 1017 10 16.09344 0 0
1:35 pm 13:35 Partly Cloudy 66 19 50 10 56 56 S 22 35 30 1016 10 16.09344 0 0
1:55 pm 13:55 Sunny 66 19 50 10 56 56 S 24 39 30 1016 10 16.09344 0 0
2:15 pm 14:15 Partly Cloudy 64 18 50 10 60 60 S 23 37 30 1016 10 16.09344 0 0
2:35 pm 14:35 Mostly Cloudy 63 17 50 10 64 64 S 22 35 30.03 1017 10 16.09344 0 0
2:55 pm 14:55 Mostly Cloudy 64 18 50 10 60 60 S 23 37 30 1016 10 16.09344 0 0
3:15 pm 15:15 Partly Cloudy 64 18 50 10 60 60 SSE 25 41 30 1016 10 16.09344 0 0
3:35 pm 15:35 Sunny 64 18 50 10 60 60 SSE 24 39 30 1016 10 16.09344 0 0
3:55 pm 15:55 Sunny 66 19 50 10 56 56 SSE 21 33 30 1016 10 16.09344 0 0
4:15 pm 16:15 Sunny 66 19 50 10 56 56 SSE 24 39 29.97 1015 10 16.09344 0 0
4:35 pm 16:35 Sunny 66 19 50 10 56 56 SSE 24 39 29.97 1015 10 16.09344 0 0
4:55 pm 16:55 Partly Cloudy 64 18 52 11 64 64 SSE 23 37 29.97 1015 10 16.09344 0 0
5:15 pm 17:15 Partly Cloudy 64 18 52 11 64 64 SSE 20 31 29.97 1015 10 16.09344 0 0
5:35 pm 17:35 Mostly Cloudy 64 18 50 10 60 60 SSE 18 30 29.97 1015 10 16.09344 0 0
5:55 pm 17:55 Cloudy 63 17 50 10 64 64 SSE 21 33 29.97 1015 10 16.09344 0 0
6:15 pm 18:15 Cloudy 63 17 50 10 64 64 SSE 18 30 29.97 1015 10 16.09344 0 0
6:35 pm 18:35 Cloudy 61 16 52 11 72 72 SE 18 30 30 1016 10 16.09344 0 0
6:55 pm 18:55 Cloudy 61 16 50 10 68 68 SE 20 31 30 1016 10 16.09344 0 0
7:15 pm 19:15 Cloudy with Rain 59 15 52 11 77 77 SE 24 39 30 1016 10 16.09344 0 0
7:35 pm 19:35 Cloudy with Light Rain 57 14 52 11 82 82 SE 20 31 30 1016 7 11.265408 0.01 0.254
7:55 pm 19:55 Cloudy with Light Rain 55 13 52 11 88 88 SE 18 30 30 1016 7 11.265408 0.03 0.762
8:15 pm 20:15 Cloudy with Light Rain 55 13 52 11 88 88 SE 15 24 30 1016 7 11.265408 0.01 0.254
8:35 pm 20:35 Cloudy with Light Rain 55 13 52 11 88 88 SE 15 24 30 1016 10 16.09344 0.03 0.762
8:55 pm 20:55 Cloudy with Light Rain 54 12 52 11 94 94 SE 16 26 30 1016 10 16.09344 0.03 0.762
9:15 pm 21:15 Cloudy with Light Rain 54 12 52 11 94 94 SE 15 24 30 1016 7 11.265408 0 0
9:35 pm 21:35 Cloudy with Light Rain 54 12 52 11 94 94 SE 17 28 30 1016 5 8.04672 0.03 0.762
9:55 pm 21:55 Cloudy with Light Rain 54 12 52 11 94 94 SE 15 24 30.03 1017 7 11.265408 0.07 1.778
10:15 pm 22:15 Cloudy with Light Rain 54 12 52 11 94 94 SE 15 24 30.03 1017 10 16.09344 0.03 0.762
10:35 pm 22:35 Cloudy with Light Rain 54 12 52 11 94 94 SE 16 26 30.03 1017 7 11.265408 0.04 1.016
10:55 pm 22:55 Cloudy with Light Rain 54 12 52 11 94 94 SE 10 17 30.03 1017 7 11.265408 0.05 1.27
11:15 pm 23:15 Cloudy with Light Rain 54 12 52 11 94 94 ESE 10 17 30 1016 7 11.265408 0.03 0.762
11:35 pm 23:35 Cloudy with Light Rain 54 12 52 11 94 94 ESE 9 15 30 1016 5 8.04672 0.06 1.524
11:55 pm 23:55 Cloudy with Light Rain 54 12 52 11 94 94 ESE 9 15 30 1016 5 8.04672 0.09 2.286

Powered by AerisWeather